CAPE
0 0 0 0 0 0 0 0 0 0 0 0 0 0 0 0 0 0 0 0 0 0 0 0 0 0 0 0 0 0 0 0 0 0 36 386 746 756 879 1025 869 970 1085 994 1054 1017 724 491 619 727 845 869 847 926 967 957 906 826 843 889 859 832 888 883 822 716 620 574 548 427 228 183 113 317 605 594 632 577 862 1000 1082 922 798 923 969 884
0 0 0 0 0 0 0 0 0 0 0 0 0 0 0 0 0 0 0 0 0 0 0 0 0 0 0 0 0 0 0 0 0 0 362 705 970 939 979 844 850 829 793 868 929 840 629 625 696 857 1091 1074 891 920 943 881 848 793 767 786 895 1041 870 713 707 663 644 584 492 419 261 188 114 86 171 404 602 710 780 766 785 919 803 727 791 752
0 0 0 0 0 0 0 0 0 0 0 0 0 0 0 0 0 0 0 0 0 0 0 0 0 0 0 0 0 0 0 0 0 0 600 1096 1126 1028 858 797 832 801 639 788 902 737 678 783 842 1001 1071 950 818 989 995 973 977 884 908 1017 1118 1026 871 780 757 670 718 832 901 510 386 314 261 190 186 216 246 464 563 558 611 581 594 644 737 847
0 0 0 0 0 0 0 0 12 72 9 0 0 0 0 0 0 0 0 0 0 8 4 0 0 0 0 0 0 0 0 0 0 0 573 828 999 986 678 640 608 699 623 796 924 819 733 791 919 994 988 788 785 984 1038 1061 1058 964 970 1121 1139 1074 978 1046 1122 788 809 682 484 692 400 408 312 115 75 50 34 49 39 356 457 418 223 486 672 756
0 9 28 0 0 0 0 0 0 0 0 0 0 0 0 0 0 0 0 44 28 1 9 3 0 0 0 0 0 0 0 0 0 11 514 641 530 745 704 651 561 718 753 876 1038 1033 908 816 905 966 989 828 766 892 1008 1065 1024 935 992 1099 1075 1059 1085 1213 1154 764 372 625 586 388 350 303 121 0 0 0 19 22 139 61 86 217 45 39 3 0
0 27 4 1 0 0 0 0 1 0 0 0 0 0 0 0 0 0 0 8 9 9 2 0 0 0 0 0 0 0 1 0 1 8 494 558 608 639 614 508 587 712 811 899 1052 1000 934 762 787 859 887 867 764 814 920 1025 905 860 909 1067 1157 1188 1209 1204 915 437 537 486 14 290 291 208 52 0 0 0 0 2 35 21 0 0 0 0 0 0
0 15 13 18 0 0 0 0 13 7 0 0 0 0 4 6 2 0 0 0 1 3 14 0 0 0 0 0 0 0 1 43 13 357 563 549 465 482 585 567 548 806 905 986 1010 890 808 800 796 795 844 779 748 764 726 752 759 762 846 995 1128 1226 1216 929 524 462 800 254 32 3 97 200 35 0 0 0 0 0 0 7 0 0 0 0 0 0
0 0 0 0 0 0 0 0 0 0 0 0 0 0 0 11 12 7 1 0 0 8 49 26 0 0 0 0 0 0 29 156 635 396 678 679 488 482 525 623 582 733 841 997 1090 1053 1016 852 800 960 789 750 668 704 714 701 693 814 979 1047 1005 1071 1023 535 495 784 745 347 290 268 241 4 44 0 0 0 0 0 0 0 0 0 0 0 0 0
0 0 0 4 1 0 0 0 0 0 0 0 0 0 0 0 10 7 1 1 2 0 48 0 0 0 0 0 0 0 9 114 445 556 569 562 606 619 651 598 574 628 882 1066 1040 1082 1115 1057 948 814 758 781 774 747 779 724 740 871 1028 1048 970 898 566 534 640 1006 795 358 304 106 45 297 82 22 6 4 1 0 0 0 0 0 0 0 0 0
0 2 0 0 0 0 0 0 0 0 0 0 0 0 0 0 0 1 3 5 9 0 0 0 0 0 0 0 0 0 1 168 480 764 592 372 495 511 437 497 595 714 840 1043 1096 1206 1141 1006 883 772 713 794 911 874 764 770 753 909 1074 1037 856 620 544 599 852 958 831 443 311 192 305 52 2 0 0 0 0 0 1 0 0 0 0 0 0 0
0 0 0 0 0 0 0 0 0 0 0 0 0 0 0 0 0 0 2 6 1 0 0 0 7 0 0 0 0 0 0 234 556 580 489 419 490 537 497 520 557 700 866 1069 1171 1211 1188 1039 958 778 727 801 890 889 987 851 850 1052 1194 1064 769 615 596 785 879 812 682 575 568 463 289 0 0 0 0 0 0 0 0 0 0 0 0 0 0 0
0 0 0 0 0 0 0 0 0 0 0 0 0 0 0 0 0 0 0 0 0 0 0 0 0 0 0 0 350 361 298 149 446 511 496 491 561 588 555 614 639 712 789 1019 1138 1231 1185 1158 1004 794 783 829 873 1024 1108 982 982 1227 1273 992 743 641 715 869 855 730 546 509 489 448 396 365 275 106 0 0 0 0 0 0 0 0 0 0 0 0
0 0 0 0 0 0 0 0 0 0 0 0 0 0 0 86 0 0 0 0 0 0 0 0 0 0 0 450 460 352 492 492 388 397 493 452 485 550 606 674 987 1018 930 1013 1052 1215 1218 1220 1295 923 817 901 906 968 1076 1090 1124 1289 1222 900 783 741 768 791 864 755 420 400 437 446 475 462 439 23 0 0 0 0 0 0 0 0 0 0 0 0
0 0 0 0 0 0 0 0 0 0 0 0 0 0 0 0 0 0 0 0 0 0 0 0 0 42 40 439 464 478 540 501 374 434 506 458 474 608 720 746 1172 1160 1068 1224 1185 1202 1214 1242 1499 1243 972 1021 910 947 1020 1058 1118 1254 1102 880 795 759 703 737 783 832 471 386 399 359 368 368 57 0 0 0 0 0 0 0 0 0 0 0 0 0
0 0 0 0 0 0 0 0 0 0 0 0 0 0 0 0 12 0 0 0 0 0 0 0 0 0 0 736 547 571 592 626 642 718 632 648 715 859 868 874 1318 1380 1266 1410 1382 1360 1345 1418 1530 1386 1208 1101 986 975 1002 996 1043 1084 826 815 734 671 600 673 812 868 513 321 314 285 467 19 6 7 3 0 0 0 0 0 0 0 0 0 0 0
0 0 0 0 0 0 0 0 0 9 17 1 0 0 0 0 0 8 0 9 0 0 0 57 75 216 246 282 767 530 575 856 873 903 908 873 894 1028 1027 1281 1540 1489 1368 1392 1495 1387 1495 1526 1556 1492 1426 1392 1157 1022 991 952 1060 999 802 834 746 598 585 620 727 619 189 114 143 460 287 38 15 16 0 0 0 0 0 0 0 0 0 0 0 0
0 0 0 0 0 0 0 0 0 0 0 351 0 0 0 0 0 0 0 0 0 0 0 301 304 358 202 510 511 633 556 536 1080 1152 1306 1332 1284 1293 1396 1575 1667 1563 1290 1309 1010 1278 1441 1475 1572 1524 1530 1516 1431 1188 1146 999 1252 1197 1056 973 881 636 618 627 473 376 360 220 345 656 151 45 1 5 0 0 1 0 0 0 0 0 0 0 0 0
0 0 0 0 0 0 0 0 0 0 0 36 0 0 0 0 1 0 3 0 0 0 23 0 251 153 485 511 396 400 487 534 543 939 1285 1414 1367 1366 1503 1693 1632 1597 1214 933 816 1136 1229 1277 1511 1480 1456 1448 1474 1152 1115 1130 1253 1203 1170 1189 1040 880 733 668 538 493 535 616 849 683 242 35 0 1 0 10 4 0 0 0 0 0 0 0 0 0
0 0 0 0 0 0 0 0 0 0 0 3 5 0 2 45 38 0 0 2 0 0 0 0 0 184 195 18 173 348 371 458 482 664 936 1153 1372 1327 1455 1637 1589 1582 1230 814 1112 1312 1224 1238 1313 1434 1262 1228 1114 1090 986 1104 1111 1171 1234 1189 1014 929 828 749 676 667 934 1096 952 578 436 304 140 40 19 20 0 0 0 0 0 0 0 0 0 0
0 0 0 0 0 3 0 0 0 0 0 0 2 2 7 0 0 10 0 0 0 78 0 0 0 142 224 256 148 82 90 460 490 451 575 827 828 1168 1487 1390 1426 1356 1080 976 1003 1098 1107 1088 1145 1263 1152 992 842 727 757 858 946 1138 1214 1293 1130 1022 1006 948 763 780 1065 1060 924 596 602 585 424 156 30 4 0 0 11 1 0 0 0 0 0 0
0 0 0 0 0 0 1 0 0 1 32 3 0 0 0 1 0 12 11 3 0 0 0 0 1 292 384 66 178 152 271 385 340 379 459 506 689 876 1016 905 737 729 819 832 881 827 875 914 1008 1014 773 659 610 579 606 836 758 794 1082 1262 1356 1083 1210 1241 816 905 1049 1021 921 817 683 507 430 312 115 31 10 34 54 24 6 1 1 4 4 0
0 0 0 0 3 0 6 0 0 2 0 0 0 0 0 3 0 0 0 0 0 0 0 0 25 294 223 388 174 365 96 418 357 387 445 507 468 487 490 610 932 963 951 832 767 789 797 918 962 693 714 795 683 606 519 539 609 443 709 889 1146 1007 1223 1046 777 928 965 987 832 908 808 629 459 344 158 112 72 117 91 47 38 13 6 19 9 1
0 0 0 0 3 0 0 0 0 0 0 0 0 0 0 0 0 1 0 7 5 9 1 0 261 308 374 186 359 100 500 476 392 309 352 394 426 480 303 550 780 833 784 776 677 674 642 680 645 663 569 594 504 534 580 536 173 252 34 638 774 857 922 725 638 910 912 910 783 886 865 762 608 400 414 278 143 73 64 33 50 21 18 18 12 4
10 0 0 0 0 0 0 0 0 0 0 0 0 0 0 0 3 0 0 0 0 0 0 0 141 167 206 170 126 200 105 405 373 321 311 267 273 331 76 253 395 580 575 672 565 567 626 674 599 601 600 588 568 540 461 400 388 363 246 245 267 278 789 665 79 621 668 859 501 669 855 543 569 315 190 222 5 19 10 14 45 16 15 26 10 12
0 0 0 0 0 0 0 0 7 2 0 0 0 0 4 114 26 20 21 0 0 0 6 1 2 101 213 218 111 48 83 158 346 355 329 311 142 49 15 29 17 29 188 352 381 558 680 691 613 592 520 474 388 402 443 295 514 515 386 396 386 526 372 399 134 468 559 469 361 431 552 523 624 462 101 18 24 0 15 18 78 27 4 17 4 10
28 4 0 0 0 0 0 0 0 4 0 0 0 0 92 268 235 7 0 6 0 0 0 0 50 277 182 91 198 86 83 145 335 367 288 133 36 239 241 62 11 19 0 2 210 217 534 609 561 517 456 412 442 444 405 400 484 483 550 477 511 426 344 322 361 402 476 346 55 470 448 76 375 211 1 27 70 159 39 0 10 28 12 30 0 5
1 18 0 0 0 0 0 38 19 0 0 2 0 0 130 186 85 31 0 0 0 13 0 0 84 367 271 131 186 141 62 104 78 108 55 76 137 118 28 51 52 14 289 378 352 56 5 321 443 474 432 442 486 522 512 583 701 682 586 566 438 447 339 418 443 365 309 71 38 13 477 585 409 471 83 0 119 286 442 70 0 12 21 144 10 16
0 0 14 1 0 0 59 42 4 0 0 0 0 0 15 126 274 225 94 5 77 0 438 82 0 369 231 126 32 79 114 165 101 78 62 10 62 67 64 5 15 163 13 384 180 238 192 168 219 376 470 510 551 560 585 614 783 745 715 651 580 545 416 320 429 481 539 218 19 2 101 681 728 678 562 136 319 461 649 518 87 71 105 174 129 25
0 0 0 3 28 6 0 0 0 0 0 0 0 0 0 1 22 199 315 73 112 2 277 307 334 408 243 170 113 168 214 186 191 144 69 28 10 70 246 190 40 55 100 234 248 0 16 30 41 7 253 335 518 524 567 702 813 840 750 716 741 690 526 391 356 357 343 471 520 552 605 591 624 629 64 470 289 451 678 516 279 189 137 45 12 13
0 1 167 300 2 3 1 0 0 0 0 0 0 0 0 0 247 387 388 472 518 439 407 292 166 60 258 298 152 166 357 165 247 187 139 115 77 19 9 0 0 60 0 0 0 0 0 0 34 0 41 192 329 393 556 591 570 565 614 612 592 544 441 495 453 285 522 546 561 650 653 615 591 521 399 79 243 366 546 544 398 48 1 2 0 0
0 75 1 42 7 3 0 0 0 0 0 1 3 0 0 0 126 394 470 464 454 476 307 342 75 310 245 204 98 81 271 262 363 290 97 149 100 15 2 0 0 0 0 0 0 0 0 0 162 123 0 140 99 173 192 247 426 553 493 490 568 418 364 371 484 598 546 614 587 666 721 624 544 446 289 345 391 58 531 559 404 310 252 0 4 31
0 0 0 4 3 1 2 0 0 0 0 0 0 0 0 0 0 8 200 174 307 203 272 235 82 95 109 173 64 130 110 240 283 227 220 238 216 212 5 0 0 0 0 0 0 0 0 0 61 0 62 102 0 0 0 8 137 182 383 348 362 433 352 313 424 516 446 498 590 547 595 528 473 420 372 462 574 416 243 461 488 430 325 232 157 210
1 5 2 7 24 0 0 1 0 0 0 0 0 0 0 0 0 0 0 0 0 1 37 138 75 86 129 98 13 34 35 71 12 224 259 196 199 194 191 0 0 0 0 0 0 0 0 0 0 0 0 0 0 0 0 0 0 0 311 481 122 393 377 445 500 270 179 436 503 328 385 372 406 458 484 524 568 612 455 440 484 474 463 430 330 389
0 0 16 2 0 0 0 0 0 6 4 6 19 0 0 0 0 0 0 0 0 0 0 0 6 19 81 90 51 4 1 12 0 24 63 57 51 28 28 3 12 27 0 0 0 13 17 0 21 33 6 0 0 0 0 0 0 0 0 274 417 391 370 219 25 5 31 274 339 190 308 331 404 470 480 511 482 490 443 391 328 361 368 451 528 452
0 0 7 0 0 1 26 2 30 50 23 2 0 1 0 0 0 0 0 0 2 2 0 1 16 34 5 14 2 0 0 1 6 52 20 10 19 58 99 111 111 90 90 83 70 65 71 74 89 92 79 46 21 0 0 0 0 0 0 0 6 100 310 192 248 131 71 85 62 173 6 26 60 300 409 460 389 398 432 379 402 389 448 548 496 426
24 0 17 0 0 21 11 34 14 10 5 5 1 0 0 0 0 0 4 1 3 2 2 14 23 7 2 0 0 1 5 3 6 10 5 2 1 0 13 46 73 58 24 50 72 65 42 32 51 60 54 49 39 23 1 8 0 0 0 0 0 0 0 0 0 0 5 72 126 60 98 21 224 374 458 516 517 520 481 450 409 372 347 419 443 386
41 31 40 25 0 25 24 14 1 15 0 0 5 18 11 5 0 0 0 0 2 0 2 6 6 8 7 4 2 1 0 0 2 8 6 7 9 6 4 19 18 19 12 38 0 1 3 0 4 16 40 49 37 23 26 24 11 0 0 0 0 0 0 0 0 0 0 0 1 6 92 86 242 362 354 565 572 507 490 499 435 520 449 415 423 94
5 1 10 8 23 6 55 6 7 1 0 0 0 2 1 0 1 0 0 0 0 0 0 1 6 8 12 13 9 2 0 0 1 0 0 2 1 6 7 7 2 0 0 0 0 3 6 0 0 0 1 5 9 12 18 16 12 2 2 4 2 0 0 0 2 1 0 0 0 0 0 0 0 70 258 485 540 450 415 382 527 608 668 580 532 531
89 32 15 0 44 3 30 23 3 6 0 0 0 0 0 0 0 0 0 0 0 0 0 0 0 2 3 2 0 0 0 0 0 0 0 0 0 0 2 1 0 0 0 0 0 0 0 0 0 0 0 0 0 0 0 0 0 6 9 6 9 8 10 16 16 7 2 0 0 0 0 0 0 0 0 0 133 318 450 570 635 593 568 555 596 593
0 140 0 3 2 1 7 2 6 4 0 0 0 0 0 0 0 0 2 5 0 0 0 0 0 0 0 0 0 0 0 0 0 0 0 0 0 0 0 0 0 0 0 0 0 0 0 0 0 0 0 0 0 0 0 0 0 0 0 0 0 0 0 0 2 3 0 0 0 0 0 0 0 0 0 0 0 0 9 295 392 384 459 539 443 386
0 0 0 0 0 0 3 6 2 0 0 0 0 0 0 0 0 1 0 1 0 0 0 0 0 0 0 0 0 0 0 0 0 0 0 0 0 0 0 0 0 0 0 0 0 0 2 6 2 0 0 0 0 0 0 0 0 0 0 0 0 0 0 0 0 0 0 0 0 0 0 0 0 0 0 0 0 0 0 0 0 78 137 165 256 248
0 0 0 0 0 0 0 0 0 0 0 0 0 0 0 0 0 0 0 1 0 0 0 0 2 2 1 1 0 0 0 0 0 0 0 0 0 0 0 0 0 0 0 0 0 0 0 0 0 0 0 0 0 0 0 0 0 0 0 0 0 0 0 0 0 0 0 0 0 0 0 0 0 0 0 0 0 0 0 1 1 0 0 0 0 0
0 0 0 0 0 0 0 0 0 0 0 0 0 0 0 1 0 0 0 0 0 0 0 0 2 0 0 0 0 0 0 0 0 0 0 0 0 0 0 0 0 0 0 0 0 0 0 0 0 0 0 0 0 0 0 0 0 0 0 0 0 0 0 0 0 0 0 0 0 0 0 0 0 0 0 0 0 0 2 2 2 2 5 8 1 0
0 0 0 0 0 0 0 0 2 3 0 0 0 0 0 0 0 0 0 0 0 0 0 0 0 0 0 1 0 0 0 0 0 0 0 0 0 0 0 0 0 0 0 0 0 0 0 0 0 0 0 0 0 0 0 0 0 0 0 0 0 0 0 0 0 0 0 0 4 8 8 9 8 7 3 0 0 0 2 9 12 12 11 8 2 0
0 0 0 0 0 0 0 1 0 1 0 0 0 0 0 0 1 1 0 0 0 0 0 0 0 0 0 2 1 0 0 0 0 0 0 0 0 0 0 0 0 0 0 0 0 0 0 0 0 0 0 0 0 0 0 0 0 0 0 0 0 0 0 0 0 0 0 0 3 6 5 12 14 16 8 1 0 0 0 14 17 19 19 10 5 2
0 0 0 0 0 0 0 0 0 0 0 0 0 0 0 0 2 4 3 0 3 1 1 6 10 7 4 2 1 2 0 0 0 0 0 0 0 0 0 0 0 0 0 0 0 0 0 0 0 0 0 0 0 0 0 0 0 0 0 0 0 0 0 0 0 0 0 0 0 3 13 18 24 22 12 9 7 8 12 15 22 25 28 19 14 8
5 0 0 0 0 0 4 0 3 0 0 0 0 0 0 0 0 0 0 0 0 0 2 0 0 0 0 0 0 0 1 0 0 0 0 0 0 0 0 0 0 0 0 0 0 0 0 0 0 0 0 0 0 0 0 0 0 0 0 0 0 0 0 0 0 0 0 0 0 0 0 0 0 6 8 7 8 6 6 9 12 12 12 10 4 7
1 0 0 0 0 0 0 2 0 0 1 2 2 1 2 5 2 1 0 0 0 0 0 0 0 0 0 0 0 0 0 0 0 0 0 0 0 0 0 0 0 0 0 0 0 0 0 0 0 0 0 0 0 0 0 0 0 0 0 0 0 0 0 0 0 0 0 0 0 0 0 0 0 0 0 0 0 0 0 0 3 3 4 4 4 2
0 1 5 0 0 0 4 10 7 3 0 0 2 1 1 4 6 7 5 3 3 0 0 0 0 0 0 0 0 0 0 0 0 0 0 0 0 0 0 0 0 0 0 0 0 0 0 0 0 0 0 0 0 0 0 0 0 0 0 0 0 0 0 0 0 0 0 0 0 0 0 0 0 0 0 0 0 0 0 0 1 3 1 0 0 0
0 0 0 0 0 2 2 3 4 0 0 0 0 0 0 0 0 1 2 2 1 0 0 0 0 0 0 0 0 0 0 0 0 0 0 0 0 0 0 0 0 0 0 0 0 0 0 0 0 0 0 0 0 0 0 0 0 0 0 0 0 0 0 0 0 0 0 0 0 0 0 0 0 0 0 0 0 0 0 0 0 0 0 0 0 0
0 0 5 3 1 1 3 10 8 4 3 1 0 0 0 0 0 0 0 0 0 0 0 0 0 0 0 0 0 0 0 0 0 0 0 0 0 0 0 0 0 0 0 0 0 0 0 0 0 0 0 0 0 0 0 0 0 0 0 0 0 0 0 0 0 0 0 0 0 0 0 0 0 0 0 0 0 0 0 0 0 0 0 0 0 0
Wind_Speed
nan nan nan nan nan nan nan nan nan nan nan nan nan nan nan nan nan nan nan nan nan nan nan nan nan nan nan nan nan nan nan nan nan nan nan 28 31 29 34 39 38 42 39 35 36 35 38 41 40 34 30 30 34 32 31 28 25 27 29 29 28 24 21 21 20 19 20 19 18 17 15 15 15 17 17 16 14 12 12 12 12 10 11 10 10 10
nan nan nan nan nan nan nan nan nan nan nan nan nan nan nan nan nan nan nan nan nan nan nan nan nan nan nan nan nan nan nan nan nan nan 32 32 34 36 39 34 38 37 36 38 37 34 36 37 39 34 26 30 38 31 30 29 25 24 25 27 26 22 20 19 19 18 18 19 17 15 15 17 18 nan 17 15 16 15 11 12 11 11 11 12 12 13
nan nan nan nan nan nan nan nan nan nan nan nan nan nan nan nan nan nan nan nan nan nan nan nan nan nan nan nan nan nan nan nan nan nan 32 37 39 46 40 38 39 37 36 39 38 35 35 37 38 35 32 30 32 31 28 27 27 26 24 24 24 20 18 16 17 18 18 16 15 15 15 19 19 17 15 15 16 15 13 11 11 11 12 14 14 13
nan nan nan nan nan nan nan nan nan nan nan nan nan nan nan nan nan nan nan nan nan nan nan nan nan nan nan nan nan nan nan nan nan nan 33 39 49 53 47 46 43 39 40 42 37 36 35 36 35 34 32 31 30 27 26 28 29 27 25 25 23 20 19 17 16 18 16 14 13 18 20 20 20 18 nan nan nan nan nan 12 12 12 12 12 12 12
nan nan nan nan nan nan nan nan nan nan nan nan nan nan nan nan nan nan nan nan nan nan nan nan nan nan nan nan nan nan nan nan nan nan 50 47 48 50 52 51 46 40 42 42 37 35 33 33 32 32 31 30 29 28 27 27 27 25 27 26 24 22 22 20 19 18 16 16 20 22 22 22 21 nan nan nan nan nan 9 nan nan 12 nan nan nan nan
nan nan nan nan nan nan nan nan nan nan nan nan nan nan nan nan nan nan nan nan nan nan nan nan nan nan nan nan nan nan nan nan nan nan 50 48 43 44 48 49 45 42 43 43 39 39 36 33 32 31 31 31 28 26 24 25 25 25 25 25 24 23 22 22 19 16 15 17 nan 21 22 24 nan nan nan nan nan nan nan nan nan nan nan nan nan nan
nan nan nan nan nan nan nan nan nan nan nan nan nan nan nan nan nan nan nan nan nan nan nan nan nan nan nan nan nan nan nan nan nan 49 52 42 38 41 41 41 41 41 39 37 34 36 36 33 35 31 29 28 27 22 20 21 20 21 22 22 22 22 21 21 18 16 15 17 nan nan nan 23 nan nan nan nan nan nan nan nan nan nan nan nan nan nan
nan nan nan nan nan nan nan nan nan nan nan nan nan nan nan nan nan nan nan nan nan nan nan nan nan nan nan nan nan nan nan 36 50 51 48 43 41 41 40 39 39 38 37 34 32 31 32 32 32 31 28 25 23 22 20 17 16 20 20 19 18 17 18 17 16 15 17 18 16 18 20 nan nan nan nan nan nan nan nan nan nan nan nan nan nan nan
nan nan nan nan nan nan nan nan nan nan nan nan nan nan nan nan nan nan nan nan nan nan nan nan nan nan nan nan nan nan nan 34 45 43 47 47 47 45 46 46 41 37 36 33 33 27 27 28 27 28 27 23 21 20 19 18 18 16 15 14 13 13 13 13 14 14 17 17 16 17 nan 16 nan nan nan nan nan nan nan nan nan nan nan nan nan nan
nan nan nan nan nan nan nan nan nan nan nan nan nan nan nan nan nan nan nan nan nan nan nan nan nan nan nan nan nan nan nan 27 38 39 42 45 45 43 44 45 38 36 36 31 29 26 23 23 23 24 26 24 20 18 18 19 19 15 10 10 10 8 7 9 11 14 14 14 14 16 17 nan nan nan nan nan nan nan nan nan nan nan nan nan nan nan
nan nan nan nan nan nan nan nan nan nan nan nan nan nan nan nan nan nan nan nan nan nan nan nan nan nan nan nan nan nan nan 26 40 39 39 37 36 34 37 39 33 32 33 29 25 24 21 22 23 24 24 23 21 19 19 20 18 14 11 10 8 5 4 5 8 11 11 11 13 17 21 nan nan nan nan nan nan nan nan nan nan nan nan nan nan nan
nan nan nan nan nan nan nan nan nan nan nan nan nan nan nan nan nan nan nan nan nan nan nan nan nan nan nan nan 25 25 28 32 43 41 39 36 31 28 27 29 27 29 30 28 26 25 21 20 20 21 22 22 22 21 20 18 16 13 10 11 12 8 7 7 8 11 10 12 14 17 20 22 22 24 nan nan nan nan nan nan nan nan nan nan nan nan
nan nan nan nan nan nan nan nan nan nan nan nan nan nan nan nan nan nan nan nan nan nan nan nan nan nan nan 18 25 35 34 36 37 38 37 31 24 23 24 25 24 25 29 27 26 26 23 19 18 19 20 22 22 22 20 18 15 12 10 10 12 10 8 8 9 11 10 11 12 16 18 18 20 nan nan nan nan nan nan nan nan nan nan nan nan nan
nan nan nan nan nan nan nan nan nan nan nan nan nan nan nan nan nan nan nan nan nan nan nan nan nan nan nan 27 31 37 38 39 36 36 35 30 25 22 25 26 24 24 27 27 27 27 23 19 17 16 18 21 22 21 20 18 15 13 11 9 9 8 8 9 9 8 8 7 9 11 14 16 nan nan nan nan nan nan nan nan nan nan nan nan nan nan
nan nan nan nan nan nan nan nan nan nan nan nan nan nan nan nan nan nan nan nan nan nan nan nan nan nan nan 25 31 34 39 41 36 34 32 30 26 22 23 27 27 27 31 30 29 27 21 16 14 14 17 21 22 21 21 19 17 16 13 9 8 10 12 13 11 10 9 8 10 10 10 nan nan nan nan nan nan nan nan nan nan nan nan nan nan nan
nan nan nan nan nan nan nan nan nan nan nan nan nan nan nan nan nan nan nan nan nan nan nan nan nan 23 26 25 29 29 37 41 40 37 35 32 29 29 27 26 28 30 30 31 30 21 18 13 13 14 17 23 28 28 26 21 18 16 12 10 10 13 16 15 13 13 12 10 11 11 11 nan nan nan nan nan nan nan nan nan nan nan nan nan nan nan
nan nan nan nan nan nan nan nan nan nan nan 16 nan nan nan nan nan nan nan nan nan nan nan 19 24 26 27 32 30 30 34 36 38 35 34 34 34 32 29 27 28 28 29 29 28 21 18 16 16 14 17 26 36 35 26 17 14 13 12 12 15 17 17 15 15 14 12 11 10 10 12 nan nan nan nan nan nan nan nan nan nan nan nan nan nan nan
nan nan nan nan nan nan nan nan nan nan nan nan nan nan nan nan nan nan nan nan nan nan nan nan 21 22 27 25 25 27 30 29 33 32 31 31 30 30 27 27 27 27 25 24 24 22 22 21 20 17 18 24 32 28 13 15 17 13 11 14 17 16 16 16 16 13 13 13 12 13 14 nan nan nan nan nan nan nan nan nan nan nan nan nan nan nan
nan nan nan nan nan nan nan nan nan nan nan nan nan nan nan nan nan nan nan nan nan nan nan nan nan 24 26 nan 28 22 22 23 27 30 32 32 29 27 26 27 27 27 28 28 28 24 24 26 23 19 19 19 20 16 14 18 16 14 13 15 15 14 14 15 15 13 13 14 13 12 14 18 20 nan nan nan nan nan nan nan nan nan nan nan nan nan
nan nan nan nan nan nan nan nan nan nan nan nan nan nan nan nan nan nan nan nan nan nan nan nan nan 23 24 27 28 nan nan 20 23 26 28 28 27 26 25 26 27 27 27 29 28 25 24 24 24 22 19 19 19 18 19 21 16 13 14 15 13 12 13 15 15 13 12 13 14 16 17 19 21 23 nan nan nan nan nan nan nan nan nan nan nan nan
nan nan nan nan nan nan nan nan nan nan nan nan nan nan nan nan nan nan nan nan nan nan nan nan nan 24 23 nan 22 21 19 19 22 23 22 23 23 23 23 23 26 27 28 29 30 27 24 22 22 23 23 26 25 24 21 18 20 16 16 13 11 11 11 11 11 12 12 15 16 18 20 19 20 23 25 nan nan nan nan nan nan nan nan nan nan nan
nan nan nan nan nan nan nan nan nan nan nan nan nan nan nan nan nan nan nan nan nan nan nan nan nan 23 25 27 22 26 nan 25 23 24 25 25 25 23 23 23 24 25 28 30 31 29 26 24 25 27 28 28 27 27 23 20 22 21 15 12 13 15 11 8 9 11 12 16 17 20 21 19 18 19 23 26 nan 29 nan nan nan nan nan nan nan nan
nan nan nan nan nan nan nan nan nan nan nan nan nan nan nan nan nan nan nan nan nan nan nan nan 25 24 28 31 32 nan 29 30 30 30 31 29 27 24 23 24 25 26 26 26 32 31 31 30 30 29 30 29 29 28 26 22 20 20 nan 18 17 10 5 7 11 12 16 19 20 23 24 24 23 22 22 24 24 nan nan nan nan nan nan nan nan nan
nan nan nan nan nan nan nan nan nan nan nan nan nan nan nan nan nan nan nan nan nan nan nan nan 30 26 29 34 34 28 28 30 32 33 32 32 30 29 nan 23 27 30 30 33 31 32 33 32 29 29 31 32 30 25 21 18 19 18 18 19 18 15 10 10 nan 15 17 14 16 20 24 26 29 30 26 19 nan nan nan nan nan nan nan nan nan nan
nan nan nan nan nan nan nan nan nan nan nan nan nan nan nan 33 nan nan nan nan nan nan nan nan nan 29 30 34 35 nan nan 34 35 35 36 33 30 nan nan nan nan nan 31 34 35 36 34 31 28 30 31 29 26 22 20 19 17 16 16 18 17 17 17 17 18 16 12 10 14 20 20 25 28 27 22 nan nan nan nan nan nan nan nan nan nan nan
nan nan nan nan nan nan nan nan nan nan nan nan nan nan nan 43 34 nan nan nan nan nan nan nan nan 26 29 nan 35 nan nan 35 34 35 36 31 nan 28 28 nan nan nan nan nan 34 34 32 29 27 26 26 26 23 21 18 17 17 17 17 19 17 19 20 18 16 15 13 14 nan 16 15 nan 22 22 nan nan nan 19 nan nan nan nan nan nan nan nan
nan nan nan nan nan nan nan nan nan nan nan nan nan nan 45 45 nan nan nan nan nan nan nan nan nan 31 31 31 31 31 nan 39 nan 36 nan nan 27 26 nan nan nan nan 23 24 25 nan nan 27 24 24 24 23 20 19 19 19 19 19 18 20 18 17 18 18 18 17 17 nan nan nan 17 18 18 18 nan nan 19 20 21 nan nan nan nan 21 nan nan
nan nan nan nan nan nan nan nan nan nan nan nan nan nan nan 44 43 44 nan nan nan nan 32 nan nan 39 32 33 nan nan 26 34 33 nan nan nan nan nan nan nan nan 25 nan 19 22 29 32 33 30 29 26 24 22 22 20 19 19 18 18 17 16 17 18 17 18 18 18 17 nan nan 16 17 16 16 18 21 20 21 20 16 nan nan 18 20 23 nan
nan nan nan nan nan nan nan nan nan nan nan nan nan nan nan nan nan 43 36 nan 30 nan 26 28 37 42 41 42 39 35 34 34 33 34 nan nan nan nan 25 26 nan nan nan 26 23 nan nan nan nan nan 22 22 22 19 16 16 17 17 17 16 16 17 19 20 22 21 20 19 15 13 16 16 12 15 nan 16 19 23 24 22 19 19 19 nan nan nan
nan nan 29 29 nan nan nan nan nan nan nan nan nan nan nan nan 44 42 43 45 49 43 39 40 43 nan 40 42 44 42 42 40 36 35 36 36 nan nan nan nan nan nan nan nan nan nan nan nan nan nan nan 18 11 15 15 15 16 15 15 15 17 19 20 22 20 20 19 18 16 15 17 16 15 16 17 nan 18 21 20 16 13 nan nan nan nan nan
nan nan nan nan nan nan nan nan nan nan nan nan nan nan nan nan 42 39 41 45 50 51 47 50 nan 42 35 39 nan nan 39 39 40 39 nan 33 34 nan nan nan nan nan nan nan nan nan nan nan 28 26 nan 22 nan 15 14 15 15 16 16 17 19 21 21 23 23 21 21 19 16 16 17 16 16 17 18 19 19 nan 15 13 13 16 18 nan nan nan
nan nan nan nan nan nan nan nan nan nan nan nan nan nan nan nan nan nan 36 36 42 43 44 48 nan nan 38 43 nan 44 46 46 43 41 39 35 35 38 nan nan nan nan nan nan nan nan nan nan nan nan nan 24 nan nan nan nan 20 22 24 23 23 24 24 25 24 25 23 21 21 22 20 19 19 20 19 20 20 18 17 18 19 18 20 20 19 19
nan nan nan nan nan nan nan nan nan nan nan nan nan nan nan nan nan nan nan nan nan nan nan 41 nan nan 35 nan nan nan nan nan nan 42 39 39 40 41 40 nan nan nan nan nan nan nan nan nan nan nan nan nan nan nan nan nan nan nan 24 27 26 26 28 28 27 27 26 24 22 21 20 20 21 21 21 22 22 21 23 25 21 19 21 21 19 22
nan nan nan nan nan nan nan nan nan nan nan nan nan nan nan nan nan nan nan nan nan nan nan nan nan nan nan nan nan nan nan nan nan nan nan nan nan nan nan nan nan nan nan nan nan nan nan nan nan nan nan nan nan nan nan nan nan nan nan 31 28 30 30 30 nan nan nan 27 25 25 23 22 23 23 21 21 22 23 25 25 24 23 23 25 25 26
nan nan nan nan nan nan nan nan nan nan nan nan nan nan nan nan nan nan nan nan nan nan nan nan nan nan nan nan nan nan nan nan nan nan nan nan nan nan nan 39 38 nan nan nan nan nan nan nan nan nan nan nan nan nan nan nan nan nan nan nan nan 37 35 35 34 32 nan nan nan 31 nan nan nan 23 23 25 27 26 28 27 28 29 29 30 28 29
nan nan nan nan nan nan nan nan nan nan nan nan nan nan nan nan nan nan nan nan nan nan nan nan nan nan nan nan nan nan nan nan nan nan nan nan nan nan nan nan nan nan nan nan nan nan nan nan nan nan nan nan nan nan nan nan nan nan nan nan nan nan nan nan nan nan nan nan 32 nan nan nan 33 28 30 30 32 32 32 32 33 35 34 35 34 34
nan nan nan nan nan nan nan nan nan nan nan nan nan nan nan nan nan nan nan nan nan nan nan nan nan nan nan nan nan nan nan nan nan nan nan nan nan nan nan nan nan nan nan nan nan nan nan nan nan nan nan nan nan nan nan nan nan nan nan nan nan nan nan nan nan nan nan nan nan nan nan nan 35 36 37 35 36 37 38 38 38 38 39 40 39 nan
nan nan nan nan nan nan nan nan nan nan nan nan nan nan nan nan nan nan nan nan nan nan nan nan nan nan nan nan nan nan nan nan nan nan nan nan nan nan nan nan nan nan nan nan nan nan nan nan nan nan nan nan nan nan nan nan nan nan nan nan nan nan nan nan nan nan nan nan nan nan nan nan nan nan 39 40 37 37 38 39 41 42 44 45 44 43
nan nan nan nan nan nan nan nan nan nan nan nan nan nan nan nan nan nan nan nan nan nan nan nan nan nan nan nan nan nan nan nan nan nan nan nan nan nan nan nan nan nan nan nan nan nan nan nan nan nan nan nan nan nan nan nan nan nan nan nan nan nan nan nan nan nan nan nan nan nan nan nan nan nan nan nan 42 41 40 40 42 43 45 46 45 43
nan 28 nan nan nan nan nan nan nan nan nan nan nan nan nan nan nan nan nan nan nan nan nan nan nan nan nan nan nan nan nan nan nan nan nan nan nan nan nan nan nan nan nan nan nan nan nan nan nan nan nan nan nan nan nan nan nan nan nan nan nan nan nan nan nan nan nan nan nan nan nan nan nan nan nan nan nan nan nan 41 41 43 42 42 41 40
nan nan nan nan nan nan nan nan nan nan nan nan nan nan nan nan nan nan nan nan nan nan nan nan nan nan nan nan nan nan nan nan nan nan nan nan nan nan nan nan nan nan nan nan nan nan nan nan nan nan nan nan nan nan nan nan nan nan nan nan nan nan nan nan nan nan nan nan nan nan nan nan nan nan nan nan nan nan nan nan nan nan 43 40 39 39
nan nan nan nan nan nan nan nan nan nan nan nan nan nan nan nan nan nan nan nan nan nan nan nan nan nan nan nan nan nan nan nan nan nan nan nan nan nan nan nan nan nan nan nan nan nan nan nan nan nan nan nan nan nan nan nan nan nan nan nan nan nan nan nan nan nan nan nan nan nan nan nan nan nan nan nan nan nan nan nan nan nan nan nan nan nan
nan nan nan nan nan nan nan nan nan nan nan nan nan nan nan nan nan nan nan nan nan nan nan nan nan nan nan nan nan nan nan nan nan nan nan nan nan nan nan nan nan nan nan nan nan nan nan nan nan nan nan nan nan nan nan nan nan nan nan nan nan nan nan nan nan nan nan nan nan nan nan nan nan nan nan nan nan nan nan nan nan nan nan nan nan nan
nan nan nan nan nan nan nan nan nan nan nan nan nan nan nan nan nan nan nan nan nan nan nan nan nan nan nan nan nan nan nan nan nan nan nan nan nan nan nan nan nan nan nan nan nan nan nan nan nan nan nan nan nan nan nan nan nan nan nan nan nan nan nan nan nan nan nan nan nan nan nan nan nan nan nan nan nan nan nan nan nan nan nan nan nan nan
nan nan nan nan nan nan nan nan nan nan nan nan nan nan nan nan nan nan nan nan nan nan nan nan nan nan nan nan nan nan nan nan nan nan nan nan nan nan nan nan nan nan nan nan nan nan nan nan nan nan nan nan nan nan nan nan nan nan nan nan nan nan nan nan nan nan nan nan nan nan nan nan nan nan nan nan nan nan nan nan nan nan nan nan nan nan
nan nan nan nan nan nan nan nan nan nan nan nan nan nan nan nan nan nan nan nan nan nan nan nan nan nan nan nan nan nan nan nan nan nan nan nan nan nan nan nan nan nan nan nan nan nan nan nan nan nan nan nan nan nan nan nan nan nan nan nan nan nan nan nan nan nan nan nan nan nan nan nan nan nan nan nan nan nan nan nan nan nan nan nan nan nan
nan nan nan nan nan nan nan nan nan nan nan nan nan nan nan nan nan nan nan nan nan nan nan nan nan nan nan nan nan nan nan nan nan nan nan nan nan nan nan nan nan nan nan nan nan nan nan nan nan nan nan nan nan nan nan nan nan nan nan nan nan nan nan nan nan nan nan nan nan nan nan nan nan nan nan nan nan nan nan nan nan nan nan nan nan nan
nan nan nan nan nan nan nan nan nan nan nan nan nan nan nan nan nan nan nan nan nan nan nan nan nan nan nan nan nan nan nan nan nan nan nan nan nan nan nan nan nan nan nan nan nan nan nan nan nan nan nan nan nan nan nan nan nan nan nan nan nan nan nan nan nan nan nan nan nan nan nan nan nan nan nan nan nan nan nan nan nan nan nan nan nan nan
nan nan nan nan nan nan nan nan nan nan nan nan nan nan nan nan nan nan nan nan nan nan nan nan nan nan nan nan nan nan nan nan nan nan nan nan nan nan nan nan nan nan nan nan nan nan nan nan nan nan nan nan nan nan nan nan nan nan nan nan nan nan nan nan nan nan nan nan nan nan nan nan nan nan nan nan nan nan nan nan nan nan nan nan nan nan
nan nan nan nan nan nan nan nan nan nan nan nan nan nan nan nan nan nan nan nan nan nan nan nan nan nan nan nan nan nan nan nan nan nan nan nan nan nan nan nan nan nan nan nan nan nan nan nan nan nan nan nan nan nan nan nan nan nan nan nan nan nan nan nan nan nan nan nan nan nan nan nan nan nan nan nan nan nan nan nan nan nan nan nan nan nan
nan nan nan nan nan nan nan nan nan nan nan nan nan nan nan nan nan nan nan nan nan nan nan nan nan nan nan nan nan nan nan nan nan nan nan nan nan nan nan nan nan nan nan nan nan nan nan nan nan nan nan nan nan nan nan nan nan nan nan nan nan nan nan nan nan nan nan nan nan nan nan nan nan nan nan nan nan nan nan nan nan nan nan nan nan nan
Wind_Direction
nan nan nan nan nan nan nan nan nan nan nan nan nan nan nan nan nan nan nan nan nan nan nan nan nan nan nan nan nan nan nan nan nan nan nan 278 275 275 254 254 255 257 262 268 269 270 271 272 272 274 279 278 280 284 290 296 302 302 300 298 294 291 294 292 290 288 289 289 281 274 280 269 259 272 279 277 284 309 312 306 294 290 295 301 305 311
nan nan nan nan nan nan nan nan nan nan nan nan nan nan nan nan nan nan nan nan nan nan nan nan nan nan nan nan nan nan nan nan nan nan 258 280 281 280 270 259 259 259 263 267 269 274 275 278 285 289 286 284 289 291 296 304 306 304 302 302 298 294 297 296 295 296 292 289 290 288 292 278 274 nan 280 280 288 291 289 294 295 296 302 309 314 317
nan nan nan nan nan nan nan nan nan nan nan nan nan nan nan nan nan nan nan nan nan nan nan nan nan nan nan nan nan nan nan nan nan nan 275 286 286 276 272 262 264 265 269 276 282 284 282 284 288 291 299 300 294 295 298 301 306 309 306 303 304 301 294 291 287 285 282 277 275 279 277 279 278 279 279 275 277 278 283 288 296 304 308 312 314 315
nan nan nan nan nan nan nan nan nan nan nan nan nan nan nan nan nan nan nan nan nan nan nan nan nan nan nan nan nan nan nan nan nan nan 255 267 268 276 275 274 274 274 279 282 285 285 283 285 288 294 302 302 297 301 303 305 307 305 301 300 301 298 288 283 280 277 269 265 256 255 265 268 277 282 nan nan nan nan nan 288 304 302 304 302 301 306
nan nan nan nan nan nan nan nan nan nan nan nan nan nan nan nan nan nan nan nan nan nan nan nan nan nan nan nan nan nan nan nan nan nan 253 258 263 269 270 272 276 278 282 284 280 283 288 291 296 302 305 302 307 313 313 307 304 299 301 298 296 292 288 280 277 278 268 261 258 259 263 270 270 nan nan nan nan nan 277 nan nan 298 nan nan nan nan
nan nan nan nan nan nan nan nan nan nan nan nan nan nan nan nan nan nan nan nan nan nan nan nan nan nan nan nan nan nan nan nan nan nan 257 259 261 261 262 261 265 275 284 291 293 300 304 302 300 304 305 307 305 311 309 305 303 303 300 294 287 283 284 280 277 277 278 282 nan 275 281 283 nan nan nan nan nan nan nan nan nan nan nan nan nan nan
nan nan nan nan nan nan nan nan nan nan nan nan nan nan nan nan nan nan nan nan nan nan nan nan nan nan nan nan nan nan nan nan nan 245 257 258 256 258 260 267 274 280 280 283 291 296 297 303 303 303 301 296 298 303 304 309 313 315 309 299 291 288 284 280 276 275 280 287 nan nan nan 284 nan nan nan nan nan nan nan nan nan nan nan nan nan nan
nan nan nan nan nan nan nan nan nan nan nan nan nan nan nan nan nan nan nan nan nan nan nan nan nan nan nan nan nan nan nan 245 240 252 257 260 263 265 272 275 277 279 282 284 290 294 298 299 299 297 293 294 298 293 294 299 309 326 325 310 299 292 289 283 275 269 275 280 277 284 291 nan nan nan nan nan nan nan nan nan nan nan nan nan nan nan
nan nan nan nan nan nan nan nan nan nan nan nan nan nan nan nan nan nan nan nan nan nan nan nan nan nan nan nan nan nan nan 241 247 251 260 266 268 270 274 274 275 282 284 285 285 292 295 295 293 294 298 295 287 287 290 285 287 301 318 314 302 293 278 269 271 270 271 274 277 284 nan 272 nan nan nan nan nan nan nan nan nan nan nan nan nan nan
nan nan nan nan nan nan nan nan nan nan nan nan nan nan nan nan nan nan nan nan nan nan nan nan nan nan nan nan nan nan nan 245 255 259 266 269 271 273 274 276 280 282 285 286 289 292 291 287 289 290 292 289 285 283 285 281 282 282 294 306 304 305 294 279 276 276 276 281 279 279 277 nan nan nan nan nan nan nan nan nan nan nan nan nan nan nan
nan nan nan nan nan nan nan nan nan nan nan nan nan nan nan nan nan nan nan nan nan nan nan nan nan nan nan nan nan nan nan 243 254 252 260 262 262 268 273 273 275 279 283 286 284 285 284 279 282 283 290 288 284 282 283 285 290 287 287 291 293 314 321 299 287 285 287 282 280 281 283 nan nan nan nan nan nan nan nan nan nan nan nan nan nan nan
nan nan nan nan nan nan nan nan nan nan nan nan nan nan nan nan nan nan nan nan nan nan nan nan nan nan nan nan 203 210 208 245 263 267 269 265 265 269 270 271 273 274 278 283 282 281 283 272 273 277 281 285 284 279 279 274 281 282 274 274 278 282 305 303 291 283 286 289 286 278 278 279 274 267 nan nan nan nan nan nan nan nan nan nan nan nan
nan nan nan nan nan nan nan nan nan nan nan nan nan nan nan nan nan nan nan nan nan nan nan nan nan nan nan 231 216 220 225 225 258 268 272 276 274 272 283 278 270 269 276 282 281 279 281 274 270 275 278 279 282 284 280 272 269 264 259 258 275 284 292 299 290 292 294 291 289 280 275 273 270 nan nan nan nan nan nan nan nan nan nan nan nan nan
nan nan nan nan nan nan nan nan nan nan nan nan nan nan nan nan nan nan nan nan nan nan nan nan nan nan nan 234 224 230 226 241 254 263 277 285 286 292 291 281 269 264 270 272 272 270 270 267 262 267 273 272 273 273 266 261 255 251 254 254 260 271 267 263 264 274 280 289 286 272 269 274 nan nan nan nan nan nan nan nan nan nan nan nan nan nan
nan nan nan nan nan nan nan nan nan nan nan nan nan nan nan nan nan nan nan nan nan nan nan nan nan nan nan 239 236 238 239 245 256 264 268 273 276 278 284 278 271 265 252 249 261 263 263 268 271 271 265 256 251 246 240 238 239 242 248 249 258 254 244 243 243 247 246 238 240 236 240 nan nan nan nan nan nan nan nan nan nan nan nan nan nan nan
nan nan nan nan nan nan nan nan nan nan nan nan nan nan nan nan nan nan nan nan nan nan nan nan nan 223 240 239 239 240 250 251 252 254 261 266 269 275 278 278 272 268 267 263 257 256 268 271 266 260 257 257 249 238 231 233 240 250 261 260 259 260 254 251 252 252 252 242 242 239 251 nan nan nan nan nan nan nan nan nan nan nan nan nan nan nan
nan nan nan nan nan nan nan nan nan nan nan 205 nan nan nan nan nan nan nan nan nan nan nan 225 224 227 233 239 245 247 250 256 258 256 260 264 268 269 268 268 274 278 280 288 302 311 280 258 268 280 278 263 255 244 235 248 259 277 293 288 268 260 260 258 253 257 263 260 257 250 259 nan nan nan nan nan nan nan nan nan nan nan nan nan nan nan
nan nan nan nan nan nan nan nan nan nan nan nan nan nan nan nan nan nan nan nan nan nan nan nan 242 242 250 253 252 246 249 247 258 264 264 263 266 267 264 265 272 279 280 278 280 268 264 266 268 266 258 261 268 264 240 241 244 245 259 259 274 276 271 259 260 261 253 255 256 262 265 nan nan nan nan nan nan nan nan nan nan nan nan nan nan nan
nan nan nan nan nan nan nan nan nan nan nan nan nan nan nan nan nan nan nan nan nan nan nan nan nan 239 242 nan 253 248 255 254 256 261 265 269 270 270 268 271 270 271 269 267 269 270 268 267 262 257 259 259 268 287 294 259 246 245 250 250 257 271 266 266 261 248 237 238 248 261 263 265 268 nan nan nan nan nan nan nan nan nan nan nan nan nan
nan nan nan nan nan nan nan nan nan nan nan nan nan nan nan nan nan nan nan nan nan nan nan nan nan 232 234 238 246 nan nan 268 264 263 266 270 275 275 275 276 278 277 271 266 267 267 267 266 259 251 250 255 256 273 284 287 271 264 268 270 266 265 253 256 249 238 237 233 246 259 256 257 264 263 nan nan nan nan nan nan nan nan nan nan nan nan
nan nan nan nan nan nan nan nan nan nan nan nan nan nan nan nan nan nan nan nan nan nan nan nan nan 227 225 nan 241 268 264 262 266 265 260 265 267 270 272 274 275 277 273 270 269 271 271 265 252 245 251 257 261 281 289 288 287 270 265 272 275 273 254 249 254 249 246 245 250 252 250 253 258 257 256 nan nan nan nan nan nan nan nan nan nan nan
nan nan nan nan nan nan nan nan nan nan nan nan nan nan nan nan nan nan nan nan nan nan nan nan nan 229 224 226 245 264 nan 250 248 256 261 260 255 255 260 264 269 273 273 275 275 270 266 259 251 251 258 264 266 271 264 266 273 275 275 267 266 261 247 232 240 252 251 253 249 243 248 251 254 255 257 257 nan 262 nan nan nan nan nan nan nan nan
nan nan nan nan nan nan nan nan nan nan nan nan nan nan nan nan nan nan nan nan nan nan nan nan 242 231 229 231 226 nan 253 250 249 250 254 254 249 249 253 256 258 260 262 263 270 270 265 261 260 263 270 271 265 265 271 279 291 296 nan 284 273 271 284 276 258 244 240 235 233 241 245 244 243 248 258 261 256 nan nan nan nan nan nan nan nan nan
nan nan nan nan nan nan nan nan nan nan nan nan nan nan nan nan nan nan nan nan nan nan nan nan 236 240 232 234 244 238 237 242 244 246 254 255 252 250 nan 241 253 259 254 254 256 257 258 258 259 257 256 260 262 271 285 287 285 290 296 301 306 315 305 272 nan 250 248 242 242 244 250 249 249 248 243 252 nan nan nan nan nan nan nan nan nan nan
nan nan nan nan nan nan nan nan nan nan nan nan nan nan nan 215 nan nan nan nan nan nan nan nan nan 240 237 234 239 nan nan 240 244 247 250 251 254 nan nan nan nan nan 245 248 247 253 253 250 246 247 252 254 256 259 264 269 278 274 278 282 291 287 278 263 258 266 281 265 257 245 248 252 258 254 252 nan nan nan nan nan nan nan nan nan nan nan
nan nan nan nan nan nan nan nan nan nan nan nan nan nan nan 222 218 nan nan nan nan nan nan nan nan 237 236 nan 239 nan nan 253 253 254 251 254 nan 261 260 nan nan nan nan nan 239 247 255 249 244 249 251 255 256 257 257 252 252 262 272 279 273 278 282 283 281 266 261 261 nan 259 268 nan 267 269 nan nan nan 246 nan nan nan nan nan nan nan nan
nan nan nan nan nan nan nan nan nan nan nan nan nan nan 223 224 nan nan nan nan nan nan nan nan nan 249 244 246 253 248 nan 256 nan 254 nan nan 249 245 nan nan nan nan 233 208 229 nan nan 252 261 257 257 259 254 251 247 246 246 246 247 253 262 267 269 268 270 274 277 nan nan nan 252 253 263 273 nan nan 246 241 245 nan nan nan nan 258 nan nan
nan nan nan nan nan nan nan nan nan nan nan nan nan nan nan 228 229 230 nan nan nan nan 232 nan nan 246 246 250 nan nan 246 255 253 nan nan nan nan nan nan nan nan 249 nan 217 225 237 239 238 249 260 261 257 251 248 242 239 237 237 241 245 240 241 248 255 262 271 270 265 nan nan 259 243 246 256 250 248 246 243 241 243 nan nan 254 253 254 nan
nan nan nan nan nan nan nan nan nan nan nan nan nan nan nan nan nan 234 228 nan 234 nan 253 245 248 249 247 248 248 249 254 253 250 253 nan nan nan nan 267 267 nan nan nan 246 238 nan nan nan nan nan 238 247 254 254 251 247 241 238 237 239 238 240 245 252 258 258 265 264 266 271 260 263 258 259 nan 243 245 248 244 237 240 250 260 nan nan nan
nan nan 230 221 nan nan nan nan nan nan nan nan nan nan nan nan 231 233 232 228 241 243 252 256 250 nan 241 246 245 244 249 256 255 255 256 257 nan nan nan nan nan nan nan nan nan nan nan nan nan nan nan 259 252 254 246 244 246 243 247 244 239 241 247 255 260 264 261 260 260 256 261 265 271 274 276 nan 263 260 259 249 244 nan nan nan nan nan
nan nan nan nan nan nan nan nan nan nan nan nan nan nan nan nan 237 230 231 231 238 243 246 250 nan 250 245 249 nan nan 247 251 249 249 nan 256 260 nan nan nan nan nan nan nan nan nan nan nan 238 235 nan 228 nan 246 254 258 258 260 261 250 246 251 249 251 258 255 255 261 264 258 251 252 252 251 258 261 253 nan 265 271 256 258 263 nan nan nan
nan nan nan nan nan nan nan nan nan nan nan nan nan nan nan nan nan nan 236 234 242 244 246 252 nan nan 254 254 nan 246 246 249 253 253 252 253 254 257 nan nan nan nan nan nan nan nan nan nan nan nan nan 233 nan nan nan nan 249 254 263 263 263 264 260 259 260 259 257 257 256 253 251 252 255 258 259 262 264 266 268 262 255 255 263 267 271 271
nan nan nan nan nan nan nan nan nan nan nan nan nan nan nan nan nan nan nan nan nan nan nan 248 nan nan 256 nan nan nan nan nan nan 251 253 254 256 257 256 nan nan nan nan nan nan nan nan nan nan nan nan nan nan nan nan nan nan nan 248 265 270 265 268 268 266 267 268 268 266 262 259 262 267 265 264 265 266 267 265 266 264 261 264 269 270 272
nan nan nan nan nan nan nan nan nan nan nan nan nan nan nan nan nan nan nan nan nan nan nan nan nan nan nan nan nan nan nan nan nan nan nan nan nan nan nan nan nan nan nan nan nan nan nan nan nan nan nan nan nan nan nan nan nan nan nan 245 252 263 265 265 nan nan nan 267 262 258 253 251 260 257 255 258 266 271 274 275 276 276 271 269 269 268
nan nan nan nan nan nan nan nan nan nan nan nan nan nan nan nan nan nan nan nan nan nan nan nan nan nan nan nan nan nan nan nan nan nan nan nan nan nan nan 258 255 nan nan nan nan nan nan nan nan nan nan nan nan nan nan nan nan nan nan nan nan 249 251 254 255 256 nan nan nan 271 nan nan nan 251 252 259 267 269 271 271 273 275 273 271 269 269
nan nan nan nan nan nan nan nan nan nan nan nan nan nan nan nan nan nan nan nan nan nan nan nan nan nan nan nan nan nan nan nan nan nan nan nan nan nan nan nan nan nan nan nan nan nan nan nan nan nan nan nan nan nan nan nan nan nan nan nan nan nan nan nan nan nan nan nan 260 nan nan nan 278 273 269 268 268 268 265 263 264 265 264 263 261 261
nan nan nan nan nan nan nan nan nan nan nan nan nan nan nan nan nan nan nan nan nan nan nan nan nan nan nan nan nan nan nan nan nan nan nan nan nan nan nan nan nan nan nan nan nan nan nan nan nan nan nan nan nan nan nan nan nan nan nan nan nan nan nan nan nan nan nan nan nan nan nan nan 273 277 274 269 269 270 271 270 270 269 270 269 267 nan
nan nan nan nan nan nan nan nan nan nan nan nan nan nan nan nan nan nan nan nan nan nan nan nan nan nan nan nan nan nan nan nan nan nan nan nan nan nan nan nan nan nan nan nan nan nan nan nan nan nan nan nan nan nan nan nan nan nan nan nan nan nan nan nan nan nan nan nan nan nan nan nan nan nan 265 267 267 267 270 272 271 273 272 271 270 268
nan nan nan nan nan nan nan nan nan nan nan nan nan nan nan nan nan nan nan nan nan nan nan nan nan nan nan nan nan nan nan nan nan nan nan nan nan nan nan nan nan nan nan nan nan nan nan nan nan nan nan nan nan nan nan nan nan nan nan nan nan nan nan nan nan nan nan nan nan nan nan nan nan nan nan nan 264 266 268 269 270 269 268 269 269 268
nan 239 nan nan nan nan nan nan nan nan nan nan nan nan nan nan nan nan nan nan nan nan nan nan nan nan nan nan nan nan nan nan nan nan nan nan nan nan nan nan nan nan nan nan nan nan nan nan nan nan nan nan nan nan nan nan nan nan nan nan nan nan nan nan nan nan nan nan nan nan nan nan nan nan nan nan nan nan nan 262 263 266 267 266 267 269
nan nan nan nan nan nan nan nan nan nan nan nan nan nan nan nan nan nan nan nan nan nan nan nan nan nan nan nan nan nan nan nan nan nan nan nan nan nan nan nan nan nan nan nan nan nan nan nan nan nan nan nan nan nan nan nan nan nan nan nan nan nan nan nan nan nan nan nan nan nan nan nan nan nan nan nan nan nan nan nan nan nan 267 264 261 262
nan nan nan nan nan nan nan nan nan nan nan nan nan nan nan nan nan nan nan nan nan nan nan nan nan nan nan nan nan nan nan nan nan nan nan nan nan nan nan nan nan nan nan nan nan nan nan nan nan nan nan nan nan nan nan nan nan nan nan nan nan nan nan nan nan nan nan nan nan nan nan nan nan nan nan nan nan nan nan nan nan nan nan nan nan nan
nan nan nan nan nan nan nan nan nan nan nan nan nan nan nan nan nan nan nan nan nan nan nan nan nan nan nan nan nan nan nan nan nan nan nan nan nan nan nan nan nan nan nan nan nan nan nan nan nan nan nan nan nan nan nan nan nan nan nan nan nan nan nan nan nan nan nan nan nan nan nan nan nan nan nan nan nan nan nan nan nan nan nan nan nan nan
nan nan nan nan nan nan nan nan nan nan nan nan nan nan nan nan nan nan nan nan nan nan nan nan nan nan nan nan nan nan nan nan nan nan nan nan nan nan nan nan nan nan nan nan nan nan nan nan nan nan nan nan nan nan nan nan nan nan nan nan nan nan nan nan nan nan nan nan nan nan nan nan nan nan nan nan nan nan nan nan nan nan nan nan nan nan
nan nan nan nan nan nan nan nan nan nan nan nan nan nan nan nan nan nan nan nan nan nan nan nan nan nan nan nan nan nan nan nan nan nan nan nan nan nan nan nan nan nan nan nan nan nan nan nan nan nan nan nan nan nan nan nan nan nan nan nan nan nan nan nan nan nan nan nan nan nan nan nan nan nan nan nan nan nan nan nan nan nan nan nan nan nan
nan nan nan nan nan nan nan nan nan nan nan nan nan nan nan nan nan nan nan nan nan nan nan nan nan nan nan nan nan nan nan nan nan nan nan nan nan nan nan nan nan nan nan nan nan nan nan nan nan nan nan nan nan nan nan nan nan nan nan nan nan nan nan nan nan nan nan nan nan nan nan nan nan nan nan nan nan nan nan nan nan nan nan nan nan nan
nan nan nan nan nan nan nan nan nan nan nan nan nan nan nan nan nan nan nan nan nan nan nan nan nan nan nan nan nan nan nan nan nan nan nan nan nan nan nan nan nan nan nan nan nan nan nan nan nan nan nan nan nan nan nan nan nan nan nan nan nan nan nan nan nan nan nan nan nan nan nan nan nan nan nan nan nan nan nan nan nan nan nan nan nan nan
nan nan nan nan nan nan nan nan nan nan nan nan nan nan nan nan nan nan nan nan nan nan nan nan nan nan nan nan nan nan nan nan nan nan nan nan nan nan nan nan nan nan nan nan nan nan nan nan nan nan nan nan nan nan nan nan nan nan nan nan nan nan nan nan nan nan nan nan nan nan nan nan nan nan nan nan nan nan nan nan nan nan nan nan nan nan
nan nan nan nan nan nan nan nan nan nan nan nan nan nan nan nan nan nan nan nan nan nan nan nan nan nan nan nan nan nan nan nan nan nan nan nan nan nan nan nan nan nan nan nan nan nan nan nan nan nan nan nan nan nan nan nan nan nan nan nan nan nan nan nan nan nan nan nan nan nan nan nan nan nan nan nan nan nan nan nan nan nan nan nan nan nan
nan nan nan nan nan nan nan nan nan nan nan nan nan nan nan nan nan nan nan nan nan nan nan nan nan nan nan nan nan nan nan nan nan nan nan nan nan nan nan nan nan nan nan nan nan nan nan nan nan nan nan nan nan nan nan nan nan nan nan nan nan nan nan nan nan nan nan nan nan nan nan nan nan nan nan nan nan nan nan nan nan nan nan nan nan nan
nan nan nan nan nan nan nan nan nan nan nan nan nan nan nan nan nan nan nan nan nan nan nan nan nan nan nan nan nan nan nan nan nan nan nan nan nan nan nan nan nan nan nan nan nan nan nan nan nan nan nan nan nan nan nan nan nan nan nan nan nan nan nan nan nan nan nan nan nan nan nan nan nan nan nan nan nan nan nan nan nan nan nan nan nan nan